Year,Month,Day,Hour,Minute,Value (Times are PST for windgust in km/hr)
2014,10,21,00,00,6.40
2014,10,21,00,01,8.10
2014,10,21,00,02,8.10
2014,10,21,00,03,8.10
2014,10,21,00,04,8.10
2014,10,21,00,05,8.10
2014,10,21,00,06,6.40
2014,10,21,00,07,8.10
2014,10,21,00,08,9.60
2014,10,21,00,09,8.10
2014,10,21,00,10,8.10
2014,10,21,00,11,8.10
2014,10,21,00,12,6.40
2014,10,21,00,13,6.40
2014,10,21,00,14,8.10
2014,10,21,00,15,6.40
2014,10,21,00,16,4.80
2014,10,21,00,17,4.80
2014,10,21,00,18,4.80
2014,10,21,00,19,4.80
2014,10,21,00,20,6.40
2014,10,21,00,21,4.80
2014,10,21,00,22,6.40
2014,10,21,00,23,8.10
2014,10,21,00,24,6.40
2014,10,21,00,25,8.10
2014,10,21,00,26,6.40
2014,10,21,00,27,6.40
2014,10,21,00,28,8.10
2014,10,21,00,29,6.40
2014,10,21,00,30,4.80
2014,10,21,00,31,4.80
2014,10,21,00,32,6.40
2014,10,21,00,33,6.40
2014,10,21,00,34,6.40
2014,10,21,00,35,8.10
2014,10,21,00,36,8.10
2014,10,21,00,37,8.10
2014,10,21,00,38,8.10
2014,10,21,00,39,8.10
2014,10,21,00,40,6.40
2014,10,21,00,41,8.10
2014,10,21,00,42,6.40
2014,10,21,00,43,6.40
2014,10,21,00,44,6.40
2014,10,21,00,45,6.40
2014,10,21,00,46,6.40
2014,10,21,00,47,3.20
2014,10,21,00,48,6.40
2014,10,21,00,49,6.40
2014,10,21,00,50,3.20
2014,10,21,00,51,4.80
2014,10,21,00,52,3.20
2014,10,21,00,53,3.20
2014,10,21,00,54,3.20
2014,10,21,00,55,4.80
2014,10,21,00,56,3.20
2014,10,21,00,57,4.80
2014,10,21,00,58,4.80
2014,10,21,00,59,3.20
2014,10,21,01,00,3.20
2014,10,21,01,01,3.20
2014,10,21,01,02,3.20
2014,10,21,01,03,3.20
2014,10,21,01,04,3.20
2014,10,21,01,05,4.80
2014,10,21,01,06,4.80
2014,10,21,01,07,3.20
2014,10,21,01,08,3.20
2014,10,21,01,09,4.80
2014,10,21,01,10,3.20
2014,10,21,01,11,3.20
2014,10,21,01,12,4.80
2014,10,21,01,13,4.80
2014,10,21,01,14,4.80
2014,10,21,01,15,3.20
2014,10,21,01,16,4.80
2014,10,21,01,17,4.80
2014,10,21,01,18,4.80
2014,10,21,01,19,3.20
2014,10,21,01,20,3.20
2014,10,21,01,21,3.20
2014,10,21,01,22,4.80
2014,10,21,01,23,4.80
2014,10,21,01,24,4.80
2014,10,21,01,25,4.80
2014,10,21,01,26,3.20
2014,10,21,01,27,4.80
2014,10,21,01,28,4.80
2014,10,21,01,29,4.80
2014,10,21,01,30,1.60
2014,10,21,01,31,1.60
2014,10,21,01,32,3.20
2014,10,21,01,33,3.20
2014,10,21,01,34,3.20
2014,10,21,01,35,3.20
2014,10,21,01,36,4.80
2014,10,21,01,37,4.80
2014,10,21,01,38,6.40
2014,10,21,01,39,6.40
2014,10,21,01,40,6.40
2014,10,21,01,41,6.40
2014,10,21,01,42,4.80
2014,10,21,01,43,4.80
2014,10,21,01,44,16.10
2014,10,21,01,45,11.30
2014,10,21,01,46,14.50
2014,10,21,01,47,9.60
2014,10,21,01,48,8.10
2014,10,21,01,49,14.50
2014,10,21,01,50,14.50
2014,10,21,01,51,14.50
2014,10,21,01,52,17.70
2014,10,21,01,53,19.30
2014,10,21,01,54,19.30
2014,10,21,01,55,19.30
2014,10,21,01,56,17.70
2014,10,21,01,57,16.10
2014,10,21,01,58,24.20
2014,10,21,01,59,20.90
2014,10,21,02,00,19.30
2014,10,21,02,01,27.40
2014,10,21,02,02,20.90
2014,10,21,02,03,24.20
2014,10,21,02,04,19.30
2014,10,21,02,05,22.50
2014,10,21,02,06,22.50
2014,10,21,02,07,24.20
2014,10,21,02,08,19.30
2014,10,21,02,09,14.50
2014,10,21,02,10,17.70
2014,10,21,02,11,14.50
2014,10,21,02,12,14.50
2014,10,21,02,13,20.90
2014,10,21,02,14,19.30
2014,10,21,02,15,12.90
2014,10,21,02,16,14.50
2014,10,21,02,17,16.10
2014,10,21,02,18,20.90
2014,10,21,02,19,22.50
2014,10,21,02,20,20.90
2014,10,21,02,21,19.30
2014,10,21,02,22,19.30
2014,10,21,02,23,11.30
2014,10,21,02,24,14.50
2014,10,21,02,25,16.10
2014,10,21,02,26,14.50
2014,10,21,02,27,11.30
2014,10,21,02,28,14.50
2014,10,21,02,29,11.30
2014,10,21,02,30,9.60
2014,10,21,02,31,14.50
2014,10,21,02,32,12.90
2014,10,21,02,33,12.90
2014,10,21,02,34,14.50
2014,10,21,02,35,17.70
2014,10,21,02,36,11.30
2014,10,21,02,37,22.50
2014,10,21,02,38,17.70
2014,10,21,02,39,12.90
2014,10,21,02,40,11.30
2014,10,21,02,41,17.70
2014,10,21,02,42,22.50
2014,10,21,02,43,19.30
2014,10,21,02,44,19.30
2014,10,21,02,45,16.10
2014,10,21,02,46,19.30
2014,10,21,02,47,11.30
2014,10,21,02,48,8.10
2014,10,21,02,49,9.60
2014,10,21,02,50,8.10
2014,10,21,02,51,19.30
2014,10,21,02,52,16.10
2014,10,21,02,53,14.50
2014,10,21,02,54,17.70
2014,10,21,02,55,12.90
2014,10,21,02,56,16.10
2014,10,21,02,57,12.90
2014,10,21,02,58,9.60
2014,10,21,02,59,11.30
2014,10,21,03,00,9.60
2014,10,21,03,01,17.70
2014,10,21,03,02,14.50
2014,10,21,03,03,12.90
2014,10,21,03,04,11.30
2014,10,21,03,05,12.90
2014,10,21,03,06,14.50
2014,10,21,03,07,11.30
2014,10,21,03,08,6.40
2014,10,21,03,09,6.40
2014,10,21,03,10,11.30
2014,10,21,03,11,8.10
2014,10,21,03,12,11.30
2014,10,21,03,13,9.60
2014,10,21,03,14,6.40
2014,10,21,03,15,9.60
2014,10,21,03,16,8.10
2014,10,21,03,17,6.40
2014,10,21,03,18,4.80
2014,10,21,03,19,4.80
2014,10,21,03,20,8.10
2014,10,21,03,21,6.40
2014,10,21,03,22,4.80
2014,10,21,03,23,3.20
2014,10,21,03,24,4.80
2014,10,21,03,25,8.10
2014,10,21,03,26,8.10
2014,10,21,03,27,6.40
2014,10,21,03,28,8.10
2014,10,21,03,29,8.10
2014,10,21,03,30,8.10
2014,10,21,03,31,6.40
2014,10,21,03,32,11.30
2014,10,21,03,33,14.50
2014,10,21,03,34,9.60
2014,10,21,03,35,8.10
2014,10,21,03,36,11.30
2014,10,21,03,37,9.60
2014,10,21,03,38,8.10
2014,10,21,03,39,8.10
2014,10,21,03,40,9.60
2014,10,21,03,41,9.60
2014,10,21,03,42,11.30
2014,10,21,03,43,9.60
2014,10,21,03,44,9.60
2014,10,21,03,45,8.10
2014,10,21,03,46,3.20
2014,10,21,03,47,6.40
2014,10,21,03,48,6.40
2014,10,21,03,49,6.40
2014,10,21,03,50,8.10
2014,10,21,03,51,4.80
2014,10,21,03,52,3.20
2014,10,21,03,53,3.20
2014,10,21,03,54,1.60
2014,10,21,03,55,1.60
2014,10,21,03,56,1.60
2014,10,21,03,57,1.60
2014,10,21,03,58,1.60
2014,10,21,04,00,1.60
2014,10,21,04,01,1.60
2014,10,21,04,02,1.60
2014,10,21,04,03,1.60
2014,10,21,04,04,1.60
2014,10,21,04,08,1.60
2014,10,21,04,14,1.60
2014,10,21,04,15,1.60
2014,10,21,04,16,3.20
2014,10,21,04,17,1.60
2014,10,21,04,18,1.60
2014,10,21,04,19,1.60
2014,10,21,04,20,1.60
2014,10,21,04,21,3.20
2014,10,21,04,22,3.20
2014,10,21,04,23,3.20
2014,10,21,04,24,3.20
2014,10,21,04,25,3.20
2014,10,21,04,26,3.20
2014,10,21,04,27,3.20
2014,10,21,04,28,1.60
2014,10,21,04,29,3.20
2014,10,21,04,30,3.20
2014,10,21,04,31,3.20
2014,10,21,04,32,3.20
2014,10,21,04,33,1.60
2014,10,21,04,34,1.60
2014,10,21,04,35,1.60
2014,10,21,04,36,1.60
2014,10,21,04,39,1.60
2014,10,21,04,40,1.60
2014,10,21,04,46,1.60
2014,10,21,04,47,1.60
2014,10,21,04,48,3.20
2014,10,21,04,49,1.60
2014,10,21,04,50,1.60
2014,10,21,04,51,1.60
2014,10,21,04,52,1.60
2014,10,21,04,56,1.60
2014,10,21,04,57,1.60
2014,10,21,04,58,1.60
2014,10,21,04,59,3.20
2014,10,21,05,00,3.20
2014,10,21,05,01,1.60
2014,10,21,05,02,1.60
2014,10,21,05,03,1.60
2014,10,21,05,07,1.60
2014,10,21,05,08,3.20
2014,10,21,05,09,1.60
2014,10,21,05,10,1.60
2014,10,21,05,14,1.60
2014,10,21,05,15,1.60
2014,10,21,05,16,1.60
2014,10,21,05,17,1.60
2014,10,21,05,19,1.60
2014,10,21,05,20,1.60
2014,10,21,05,21,1.60
2014,10,21,05,22,1.60
2014,10,21,05,23,1.60
2014,10,21,05,24,3.20
2014,10,21,05,25,1.60
2014,10,21,05,26,1.60
2014,10,21,05,27,1.60
2014,10,21,05,28,3.20
2014,10,21,05,29,1.60
2014,10,21,05,30,3.20
2014,10,21,05,31,1.60
2014,10,21,05,32,3.20
2014,10,21,05,33,6.40
2014,10,21,05,34,4.80
2014,10,21,05,35,3.20
2014,10,21,05,36,3.20
2014,10,21,05,37,1.60
2014,10,21,05,38,1.60
2014,10,21,05,39,1.60
2014,10,21,05,40,1.60
2014,10,21,05,41,1.60
2014,10,21,05,42,3.20
2014,10,21,05,43,4.80
2014,10,21,05,44,4.80
2014,10,21,05,45,3.20
2014,10,21,05,46,4.80
2014,10,21,05,47,4.80
2014,10,21,05,48,3.20
2014,10,21,05,49,4.80
2014,10,21,05,50,4.80
2014,10,21,05,51,3.20
2014,10,21,05,52,1.60
2014,10,21,05,53,3.20
2014,10,21,05,54,4.80
2014,10,21,05,55,6.40
2014,10,21,05,56,3.20
2014,10,21,05,57,3.20
2014,10,21,05,58,6.40
2014,10,21,05,59,6.40
2014,10,21,06,00,3.20
2014,10,21,06,01,1.60
2014,10,21,06,02,3.20
2014,10,21,06,03,3.20
2014,10,21,06,04,3.20
2014,10,21,06,05,1.60
2014,10,21,06,06,3.20
2014,10,21,06,07,3.20
2014,10,21,06,08,3.20
2014,10,21,06,09,1.60
2014,10,21,06,10,1.60
2014,10,21,06,11,3.20
2014,10,21,06,12,3.20
2014,10,21,06,13,1.60
2014,10,21,06,14,1.60
2014,10,21,06,15,1.60
2014,10,21,06,16,3.20
2014,10,21,06,17,3.20
2014,10,21,06,18,1.60
2014,10,21,06,19,3.20
2014,10,21,06,20,3.20
2014,10,21,06,21,3.20
2014,10,21,06,22,4.80
2014,10,21,06,23,6.40
2014,10,21,06,24,6.40
2014,10,21,06,25,4.80
2014,10,21,06,26,4.80
2014,10,21,06,27,3.20
2014,10,21,06,28,3.20
2014,10,21,06,29,1.60
2014,10,21,06,30,1.60
2014,10,21,06,32,1.60
2014,10,21,06,35,1.60
2014,10,21,06,36,1.60
2014,10,21,06,37,1.60
2014,10,21,06,38,3.20
2014,10,21,06,39,1.60
2014,10,21,06,40,1.60
2014,10,21,06,41,1.60
2014,10,21,06,42,1.60
2014,10,21,06,43,1.60
2014,10,21,06,44,1.60
2014,10,21,06,45,1.60
2014,10,21,06,46,1.60
2014,10,21,06,47,1.60
2014,10,21,06,48,1.60
2014,10,21,06,49,1.60
2014,10,21,06,50,3.20
2014,10,21,06,51,3.20
2014,10,21,06,52,1.60
2014,10,21,06,53,1.60
2014,10,21,06,54,1.60
2014,10,21,06,55,1.60
2014,10,21,06,56,1.60
2014,10,21,06,57,1.60
2014,10,21,06,58,1.60
2014,10,21,06,59,1.60
2014,10,21,07,00,1.60
2014,10,21,07,01,3.20
2014,10,21,07,02,3.20
2014,10,21,07,03,1.60
2014,10,21,07,04,1.60
2014,10,21,07,07,1.60
2014,10,21,07,08,1.60
2014,10,21,07,09,1.60
2014,10,21,07,12,1.60
2014,10,21,07,13,1.60
2014,10,21,07,14,3.20
2014,10,21,07,15,3.20
2014,10,21,07,16,3.20
2014,10,21,07,17,1.60
2014,10,21,07,18,1.60
2014,10,21,07,19,1.60
2014,10,21,07,21,1.60
2014,10,21,07,22,1.60
2014,10,21,07,23,1.60
2014,10,21,07,24,1.60
2014,10,21,07,25,1.60
2014,10,21,07,26,1.60
2014,10,21,07,27,1.60
2014,10,21,07,28,1.60
2014,10,21,07,29,4.80
2014,10,21,07,30,4.80
2014,10,21,07,31,1.60
2014,10,21,07,32,1.60
2014,10,21,07,34,1.60
2014,10,21,07,35,3.20
2014,10,21,07,36,1.60
2014,10,21,07,41,1.60
2014,10,21,07,42,1.60
2014,10,21,07,43,1.60
2014,10,21,07,44,1.60
2014,10,21,07,45,1.60
2014,10,21,07,46,1.60
2014,10,21,07,47,1.60
2014,10,21,07,49,1.60
2014,10,21,07,50,1.60
2014,10,21,07,51,3.20
2014,10,21,07,52,1.60
2014,10,21,07,53,1.60
2014,10,21,07,54,1.60
2014,10,21,07,55,1.60
2014,10,21,07,56,3.20
2014,10,21,07,57,3.20
2014,10,21,07,58,3.20
2014,10,21,07,59,1.60
2014,10,21,08,00,1.60
2014,10,21,08,01,1.60
2014,10,21,08,03,1.60
2014,10,21,08,04,1.60
2014,10,21,08,05,1.60
2014,10,21,08,06,1.60
2014,10,21,08,07,1.60
2014,10,21,08,09,3.20
2014,10,21,08,10,3.20
2014,10,21,08,11,3.20
2014,10,21,08,12,3.20
2014,10,21,08,13,3.20
2014,10,21,08,14,3.20
2014,10,21,08,15,3.20
2014,10,21,08,16,3.20
2014,10,21,08,17,8.10
2014,10,21,08,18,6.40
2014,10,21,08,19,3.20
2014,10,21,08,20,4.80
2014,10,21,08,21,4.80
2014,10,21,08,22,8.10
2014,10,21,08,23,6.40
2014,10,21,08,24,11.30
2014,10,21,08,25,11.30
2014,10,21,08,26,9.60
2014,10,21,08,27,4.80
2014,10,21,08,28,6.40
2014,10,21,08,29,4.80
2014,10,21,08,30,6.40
2014,10,21,08,31,11.30
2014,10,21,08,32,8.10
2014,10,21,08,33,11.30
2014,10,21,08,34,11.30
2014,10,21,08,35,11.30
2014,10,21,08,36,12.90
2014,10,21,08,37,11.30
2014,10,21,08,38,12.90
2014,10,21,08,39,11.30
2014,10,21,08,40,9.60
2014,10,21,08,41,6.40
2014,10,21,08,42,11.30
2014,10,21,08,43,6.40
2014,10,21,08,44,8.10
2014,10,21,08,45,11.30
2014,10,21,08,46,12.90
2014,10,21,08,47,16.10
2014,10,21,08,48,17.70
2014,10,21,08,49,16.10
2014,10,21,08,50,14.50
2014,10,21,08,51,17.70
2014,10,21,08,52,22.50
2014,10,21,08,53,19.30
2014,10,21,08,54,14.50
2014,10,21,08,55,16.10
2014,10,21,08,56,17.70
2014,10,21,08,57,16.10
2014,10,21,08,58,14.50
2014,10,21,08,59,9.60
2014,10,21,09,00,14.50
2014,10,21,09,01,16.10
2014,10,21,09,02,11.30
2014,10,21,09,03,12.90
2014,10,21,09,04,14.50
2014,10,21,09,05,25.70
2014,10,21,09,06,20.90
2014,10,21,09,07,16.10
2014,10,21,09,08,20.90
2014,10,21,09,09,19.30
2014,10,21,09,10,16.10
2014,10,21,09,11,19.30
2014,10,21,09,12,14.50
2014,10,21,09,13,11.30
2014,10,21,09,14,12.90
2014,10,21,09,15,24.20
2014,10,21,09,16,16.10
2014,10,21,09,17,16.10
2014,10,21,09,18,16.10
2014,10,21,09,19,14.50
2014,10,21,09,20,14.50
2014,10,21,09,21,19.30
2014,10,21,09,22,17.70
2014,10,21,09,23,19.30
2014,10,21,09,24,17.70
2014,10,21,09,25,17.70
2014,10,21,09,26,16.10
2014,10,21,09,27,19.30
2014,10,21,09,28,16.10
2014,10,21,09,29,17.70
2014,10,21,09,30,24.20
2014,10,21,09,31,22.50
2014,10,21,09,32,20.90
2014,10,21,09,33,24.20
2014,10,21,09,34,22.50
2014,10,21,09,35,30.60
2014,10,21,09,36,33.80
2014,10,21,09,37,27.40
2014,10,21,09,38,25.70
2014,10,21,09,39,29.00
2014,10,21,09,40,32.20
2014,10,21,09,41,27.40
2014,10,21,09,42,27.40
2014,10,21,09,43,32.20
2014,10,21,09,44,37.00
2014,10,21,09,45,33.80
2014,10,21,09,46,30.60
2014,10,21,09,47,30.60
2014,10,21,09,48,32.20
2014,10,21,09,49,46.70
2014,10,21,09,50,38.60
2014,10,21,09,51,40.20
2014,10,21,09,52,27.40
2014,10,21,09,53,33.80
2014,10,21,09,54,27.40
2014,10,21,09,55,41.80
2014,10,21,09,56,33.80
2014,10,21,09,57,48.30
2014,10,21,09,58,38.60
2014,10,21,09,59,35.40
2014,10,21,10,00,40.20
2014,10,21,10,01,45.10
2014,10,21,10,02,38.60
2014,10,21,10,03,43.50
2014,10,21,10,04,33.80
2014,10,21,10,05,37.00
2014,10,21,10,06,37.00
2014,10,21,10,07,41.80
2014,10,21,10,08,35.40
2014,10,21,10,09,41.80
2014,10,21,10,10,38.60
2014,10,21,10,11,49.90
2014,10,21,10,12,40.20
2014,10,21,10,13,40.20
2014,10,21,10,14,38.60
2014,10,21,10,15,43.50
2014,10,21,10,16,43.50
2014,10,21,10,17,38.60
2014,10,21,10,18,43.50
2014,10,21,10,19,45.10
2014,10,21,10,20,35.40
2014,10,21,10,21,37.00
2014,10,21,10,22,37.00
2014,10,21,10,23,37.00
2014,10,21,10,24,29.00
2014,10,21,10,25,33.80
2014,10,21,10,26,35.40
2014,10,21,10,27,30.60
2014,10,21,10,28,37.00
2014,10,21,10,29,32.20
2014,10,21,10,30,38.60
2014,10,21,10,31,40.20
2014,10,21,10,32,41.80
2014,10,21,10,33,30.60
2014,10,21,10,34,32.20
2014,10,21,10,35,27.40
2014,10,21,10,36,30.60
2014,10,21,10,37,35.40
2014,10,21,10,38,46.70
2014,10,21,10,39,40.20
2014,10,21,10,40,45.10
2014,10,21,10,41,40.20
2014,10,21,10,42,33.80
2014,10,21,10,43,43.50
2014,10,21,10,44,37.00
2014,10,21,10,45,43.50
2014,10,21,10,46,43.50
2014,10,21,10,47,41.80
2014,10,21,10,48,38.60
2014,10,21,10,49,41.80
2014,10,21,10,50,33.80
2014,10,21,10,51,30.60
2014,10,21,10,52,35.40
2014,10,21,10,53,30.60
2014,10,21,10,54,27.40
2014,10,21,10,55,35.40
2014,10,21,10,56,35.40
2014,10,21,10,57,32.20
2014,10,21,10,58,32.20
2014,10,21,10,59,27.40
2014,10,21,11,00,38.60
2014,10,21,11,01,29.00
2014,10,21,11,02,33.80
2014,10,21,11,03,37.00
2014,10,21,11,04,43.50
2014,10,21,11,05,38.60
2014,10,21,11,06,30.60
2014,10,21,11,07,41.80
2014,10,21,11,08,35.40
2014,10,21,11,09,37.00
2014,10,21,11,10,35.40
2014,10,21,11,11,30.60
2014,10,21,11,12,35.40
2014,10,21,11,13,40.20
2014,10,21,11,14,35.40
2014,10,21,11,15,33.80
2014,10,21,11,16,37.00
2014,10,21,11,17,32.20
2014,10,21,11,18,33.80
2014,10,21,11,19,46.70
2014,10,21,11,20,40.20
2014,10,21,11,21,43.50
2014,10,21,11,22,45.10
2014,10,21,11,23,40.20
2014,10,21,11,24,33.80
2014,10,21,11,25,35.40
2014,10,21,11,26,33.80
2014,10,21,11,27,41.80
2014,10,21,11,28,41.80
2014,10,21,11,29,38.60
2014,10,21,11,30,33.80
2014,10,21,11,31,38.60
2014,10,21,11,32,38.60
2014,10,21,11,33,40.20
2014,10,21,11,34,41.80
2014,10,21,11,35,40.20
2014,10,21,11,36,37.00
2014,10,21,11,37,38.60
2014,10,21,11,38,40.20
2014,10,21,11,39,35.40
2014,10,21,11,40,45.10
2014,10,21,11,41,35.40
2014,10,21,11,42,35.40
2014,10,21,11,43,38.60
2014,10,21,11,44,35.40
2014,10,21,11,45,35.40
2014,10,21,11,46,33.80
2014,10,21,11,47,29.00
2014,10,21,11,48,35.40
2014,10,21,11,49,30.60
2014,10,21,11,50,27.40
2014,10,21,11,51,22.50
2014,10,21,11,52,22.50
2014,10,21,11,53,20.90
2014,10,21,11,54,24.20
2014,10,21,11,55,17.70
2014,10,21,11,56,16.10
2014,10,21,11,57,25.70
2014,10,21,11,58,22.50
2014,10,21,11,59,24.20
2014,10,21,12,00,29.00
2014,10,21,12,01,27.40
2014,10,21,12,02,33.80
2014,10,21,12,03,27.40
2014,10,21,12,04,24.20
2014,10,21,12,05,25.70
2014,10,21,12,06,20.90
2014,10,21,12,07,24.20
2014,10,21,12,08,25.70
2014,10,21,12,09,24.20
2014,10,21,12,10,29.00
2014,10,21,12,11,27.40
2014,10,21,12,12,24.20
2014,10,21,12,13,25.70
2014,10,21,12,14,25.70
2014,10,21,12,15,20.90
2014,10,21,12,16,20.90
2014,10,21,12,17,20.90
2014,10,21,12,18,19.30
2014,10,21,12,19,14.50
2014,10,21,12,20,19.30
2014,10,21,12,21,19.30
2014,10,21,12,22,19.30
2014,10,21,12,23,22.50
2014,10,21,12,24,16.10
2014,10,21,12,25,16.10
2014,10,21,12,26,29.00
2014,10,21,12,27,25.70
2014,10,21,12,28,27.40
2014,10,21,12,29,24.20
2014,10,21,12,30,24.20
2014,10,21,12,31,25.70
2014,10,21,12,32,20.90
2014,10,21,12,33,22.50
2014,10,21,12,34,29.00
2014,10,21,12,35,33.80
2014,10,21,12,36,46.70
2014,10,21,12,37,53.10
2014,10,21,12,38,32.20
2014,10,21,12,39,43.50
2014,10,21,12,40,35.40
2014,10,21,12,41,32.20
2014,10,21,12,42,37.00
2014,10,21,12,43,35.40
2014,10,21,12,44,45.10
2014,10,21,12,45,38.60
2014,10,21,12,46,38.60
2014,10,21,12,47,29.00
2014,10,21,12,48,37.00
2014,10,21,12,49,32.20
2014,10,21,12,50,37.00
2014,10,21,12,51,38.60
2014,10,21,12,52,35.40
2014,10,21,12,53,33.80
2014,10,21,12,54,38.60
2014,10,21,12,55,33.80
2014,10,21,12,56,35.40
2014,10,21,12,57,35.40
2014,10,21,12,58,33.80
2014,10,21,12,59,29.00
2014,10,21,13,00,19.30
2014,10,21,13,01,20.90
2014,10,21,13,02,27.40
2014,10,21,13,03,27.40
2014,10,21,13,04,29.00
2014,10,21,13,05,33.80
2014,10,21,13,06,35.40
2014,10,21,13,07,35.40
2014,10,21,13,08,32.20
2014,10,21,13,09,32.20
2014,10,21,13,10,22.50
2014,10,21,13,11,29.00
2014,10,21,13,12,22.50
2014,10,21,13,13,25.70
2014,10,21,13,14,29.00
2014,10,21,13,15,27.40
2014,10,21,13,16,27.40
2014,10,21,13,17,30.60
2014,10,21,13,18,30.60
2014,10,21,13,19,25.70
2014,10,21,13,20,22.50
2014,10,21,13,21,22.50
2014,10,21,13,22,25.70
2014,10,21,13,23,24.20
2014,10,21,13,24,22.50
2014,10,21,13,25,32.20
2014,10,21,13,26,29.00
2014,10,21,13,27,29.00
2014,10,21,13,28,35.40
2014,10,21,13,29,25.70
2014,10,21,13,30,22.50
2014,10,21,13,31,25.70
2014,10,21,13,32,20.90
2014,10,21,13,33,27.40
2014,10,21,13,34,25.70
2014,10,21,13,35,19.30
2014,10,21,13,36,20.90
2014,10,21,13,37,19.30
2014,10,21,13,38,20.90
2014,10,21,13,39,17.70
2014,10,21,13,40,25.70
2014,10,21,13,41,20.90
2014,10,21,13,42,19.30
2014,10,21,13,43,20.90
2014,10,21,13,44,20.90
2014,10,21,13,45,17.70
2014,10,21,13,46,12.90
2014,10,21,13,47,12.90
2014,10,21,13,48,8.10
2014,10,21,13,49,8.10
2014,10,21,13,50,9.60
2014,10,21,13,51,11.30
2014,10,21,13,52,4.80
2014,10,21,13,53,4.80
2014,10,21,13,54,4.80
2014,10,21,13,55,8.10
2014,10,21,13,56,8.10
2014,10,21,13,57,9.60
2014,10,21,13,58,12.90
2014,10,21,13,59,12.90
2014,10,21,14,00,17.70
2014,10,21,14,01,19.30
2014,10,21,14,02,29.00
2014,10,21,14,03,24.20
2014,10,21,14,04,24.20
2014,10,21,14,05,24.20
2014,10,21,14,06,20.90
2014,10,21,14,07,16.10
2014,10,21,14,08,14.50
2014,10,21,14,09,8.10
2014,10,21,14,10,3.20
2014,10,21,14,11,3.20
2014,10,21,14,12,6.40
2014,10,21,14,13,6.40
2014,10,21,14,14,3.20
2014,10,21,14,15,4.80
2014,10,21,14,16,8.10
2014,10,21,14,17,3.20
2014,10,21,14,18,8.10
2014,10,21,14,19,6.40
2014,10,21,14,20,6.40
2014,10,21,14,21,6.40
2014,10,21,14,22,11.30
2014,10,21,14,23,14.50
2014,10,21,14,24,12.90
2014,10,21,14,25,12.90
2014,10,21,14,26,12.90
2014,10,21,14,27,16.10
2014,10,21,14,28,16.10
2014,10,21,14,29,14.50
2014,10,21,14,30,20.90
2014,10,21,14,31,20.90
2014,10,21,14,32,24.20
2014,10,21,14,33,20.90
2014,10,21,14,34,25.70
2014,10,21,14,35,24.20
2014,10,21,14,36,25.70
2014,10,21,14,37,25.70
2014,10,21,14,38,22.50
2014,10,21,14,39,20.90
2014,10,21,14,40,25.70
2014,10,21,14,41,19.30
2014,10,21,14,42,20.90
2014,10,21,14,43,19.30
2014,10,21,14,44,22.50
2014,10,21,14,45,14.50
2014,10,21,14,46,20.90
2014,10,21,14,47,16.10
2014,10,21,14,48,14.50
2014,10,21,14,49,12.90
2014,10,21,14,50,19.30
2014,10,21,14,51,22.50
2014,10,21,14,52,14.50
2014,10,21,14,53,17.70
2014,10,21,14,54,14.50
2014,10,21,14,55,16.10
2014,10,21,14,56,20.90
2014,10,21,14,57,17.70
2014,10,21,14,58,17.70
2014,10,21,14,59,16.10
2014,10,21,15,00,16.10
2014,10,21,15,01,20.90
2014,10,21,15,02,17.70
2014,10,21,15,03,19.30
2014,10,21,15,04,17.70
2014,10,21,15,05,14.50
2014,10,21,15,06,17.70
2014,10,21,15,07,16.10
2014,10,21,15,08,20.90
2014,10,21,15,09,19.30
2014,10,21,15,10,20.90
2014,10,21,15,11,22.50
2014,10,21,15,12,24.20
2014,10,21,15,13,27.40
2014,10,21,15,14,27.40
2014,10,21,15,15,25.70
2014,10,21,15,16,29.00
2014,10,21,15,17,30.60
2014,10,21,15,18,27.40
2014,10,21,15,19,27.40
2014,10,21,15,20,27.40
2014,10,21,15,21,25.70
2014,10,21,15,22,27.40
2014,10,21,15,23,35.40
2014,10,21,15,24,24.20
2014,10,21,15,25,22.50
2014,10,21,15,26,32.20
2014,10,21,15,27,29.00
2014,10,21,15,28,30.60
2014,10,21,15,29,27.40
2014,10,21,15,30,25.70
2014,10,21,15,31,24.20
2014,10,21,15,32,33.80
2014,10,21,15,33,30.60
2014,10,21,15,34,32.20
2014,10,21,15,35,24.20
2014,10,21,15,36,22.50
2014,10,21,15,37,32.20
2014,10,21,15,38,30.60
2014,10,21,15,39,24.20
2014,10,21,15,40,24.20
2014,10,21,15,41,16.10
2014,10,21,15,42,25.70
2014,10,21,15,43,25.70
2014,10,21,15,44,19.30
2014,10,21,15,45,20.90
2014,10,21,15,46,27.40
2014,10,21,15,47,22.50
2014,10,21,15,48,14.50
2014,10,21,15,49,16.10
2014,10,21,15,50,12.90
2014,10,21,15,51,12.90
2014,10,21,15,52,12.90
2014,10,21,15,53,14.50
2014,10,21,15,54,17.70
2014,10,21,15,55,16.10
2014,10,21,15,56,19.30
2014,10,21,15,57,22.50
2014,10,21,15,58,33.80
2014,10,21,15,59,20.90
2014,10,21,16,00,29.00
2014,10,21,16,01,35.40
2014,10,21,16,02,41.80
2014,10,21,16,03,40.20
2014,10,21,16,04,38.60
2014,10,21,16,05,40.20
2014,10,21,16,06,40.20
2014,10,21,16,07,27.40
2014,10,21,16,08,30.60
2014,10,21,16,09,33.80
2014,10,21,16,10,29.00
2014,10,21,16,11,33.80
2014,10,21,16,12,33.80
2014,10,21,16,13,30.60
2014,10,21,16,14,22.50
2014,10,21,16,15,32.20
2014,10,21,16,16,29.00
2014,10,21,16,17,32.20
2014,10,21,16,18,30.60
2014,10,21,16,19,22.50
2014,10,21,16,20,22.50
2014,10,21,16,21,17.70
2014,10,21,16,22,16.10
2014,10,21,16,23,19.30
2014,10,21,16,24,24.20
2014,10,21,16,25,20.90
2014,10,21,16,26,16.10
2014,10,21,16,27,19.30
2014,10,21,16,28,22.50
2014,10,21,16,29,19.30
2014,10,21,16,30,17.70
2014,10,21,16,31,20.90
2014,10,21,16,32,24.20
2014,10,21,16,33,22.50
2014,10,21,16,34,20.90
2014,10,21,16,35,24.20
2014,10,21,16,36,20.90
2014,10,21,16,37,29.00
2014,10,21,16,38,24.20
2014,10,21,16,39,20.90
2014,10,21,16,40,29.00
2014,10,21,16,41,27.40
2014,10,21,16,42,24.20
2014,10,21,16,43,20.90
2014,10,21,16,44,24.20
2014,10,21,16,45,19.30
2014,10,21,16,46,25.70
2014,10,21,16,47,25.70
2014,10,21,16,48,22.50
2014,10,21,16,49,22.50
2014,10,21,16,50,24.20
2014,10,21,16,51,24.20
2014,10,21,16,52,20.90
2014,10,21,16,53,25.70
2014,10,21,16,54,20.90
2014,10,21,16,55,24.20
2014,10,21,16,56,19.30
2014,10,21,16,57,20.90
2014,10,21,16,58,20.90
2014,10,21,16,59,17.70
2014,10,21,17,00,17.70
2014,10,21,17,01,19.30
2014,10,21,17,02,19.30
2014,10,21,17,03,14.50
2014,10,21,17,04,22.50
2014,10,21,17,05,16.10
2014,10,21,17,06,20.90
2014,10,21,17,07,17.70
2014,10,21,17,08,17.70
2014,10,21,17,09,19.30
2014,10,21,17,10,14.50
2014,10,21,17,11,12.90
2014,10,21,17,12,9.60
2014,10,21,17,13,17.70
2014,10,21,17,14,16.10
2014,10,21,17,15,22.50
2014,10,21,17,16,24.20
2014,10,21,17,17,16.10
2014,10,21,17,18,22.50
2014,10,21,17,19,24.20
2014,10,21,17,20,24.20
2014,10,21,17,21,24.20
2014,10,21,17,22,20.90
2014,10,21,17,23,24.20
2014,10,21,17,24,25.70
2014,10,21,17,25,24.20
2014,10,21,17,26,24.20
2014,10,21,17,27,22.50
2014,10,21,17,28,19.30
2014,10,21,17,29,27.40
2014,10,21,17,30,30.60
2014,10,21,17,31,29.00
2014,10,21,17,32,16.10
2014,10,21,17,33,17.70
2014,10,21,17,34,17.70
2014,10,21,17,35,19.30
2014,10,21,17,36,24.20
2014,10,21,17,37,19.30
2014,10,21,17,38,20.90
2014,10,21,17,39,20.90
2014,10,21,17,40,24.20
2014,10,21,17,41,24.20
2014,10,21,17,42,17.70
2014,10,21,17,43,20.90
2014,10,21,17,44,17.70
2014,10,21,17,45,19.30
2014,10,21,17,46,24.20
2014,10,21,17,47,14.50
2014,10,21,17,48,17.70
2014,10,21,17,49,19.30
2014,10,21,17,50,12.90
2014,10,21,17,51,17.70
2014,10,21,17,52,12.90
2014,10,21,17,53,16.10
2014,10,21,17,54,14.50
2014,10,21,17,55,14.50
2014,10,21,17,56,19.30
2014,10,21,17,57,17.70
2014,10,21,17,58,11.30
2014,10,21,17,59,11.30
2014,10,21,18,00,14.50
2014,10,21,18,01,16.10
2014,10,21,18,02,14.50
2014,10,21,18,03,17.70
2014,10,21,18,04,12.90
2014,10,21,18,05,12.90
2014,10,21,18,06,11.30
2014,10,21,18,07,9.60
2014,10,21,18,08,11.30
2014,10,21,18,09,11.30
2014,10,21,18,10,12.90
2014,10,21,18,11,12.90
2014,10,21,18,12,12.90
2014,10,21,18,13,14.50
2014,10,21,18,14,8.10
2014,10,21,18,15,12.90
2014,10,21,18,16,8.10
2014,10,21,18,17,8.10
2014,10,21,18,18,11.30
2014,10,21,18,19,6.40